Regional Weather Roundup
Issued by NWS

Home | Current Version | Previous Version | Text Only | Print | Product List | Glossary Off
Versions: 1 2 3 4 5 6 7 8 9 10 11 12 13 14 15 16 17 18 19 20 21 22 23 24 25 26 27 28 29 30 31 32 33 34 35 36 37 38 39 40 41 42 43 44 45 46 47 48 49 50

000
ASUS43 KMKX 201811
RWRWI

WISCONSIN REGIONAL WEATHER ROUNDUP
NATIONAL WEATHER SERVICE MILWAUKEE/SULLIVAN WI
100 PM CDT SAT SEP 20 2014

NOTE: "FAIR" INDICATES FEW OR NO CLOUDS BELOW 12,000 FEET WITH NO
SIGNIFICANT WEATHER AND/OR OBSTRUCTIONS TO VISIBILITY.

WIZ001-002-006>008-014>016-023>028-201900-
NORTHWEST WISCONSIN

CITY           SKY/WX    TMP DP  RH WIND       PRES   REMARKS
SUPERIOR ARPT  MOSUNNY   67  53  59 W9        29.74S
6HR MIN TEMP:  61; 6HR MAX TEMP:  67;

ASHLAND        CLOUDY    65  54  67 W8G16     29.73R
6HR MIN TEMP:  64; 6HR MAX TEMP:  69;

HAYWARD        PTSUNNY   67  54  63 W8G18     29.75R
6HR MIN TEMP:  63; 6HR MAX TEMP:  68;

SIREN          CLOUDY    67  54  61 W12G17    29.78S
6HR MIN TEMP:  62; 6HR MAX TEMP:  69;

RICE LAKE      MOSUNNY   71  56  59 W10G16    29.77F
6HR MIN TEMP:  64; 6HR MAX TEMP:  71;

LADYSMITH      MOSUNNY   73  58  60 W14       29.76S
6HR MIN TEMP:  66; 6HR MAX TEMP:  73;

EAU CLAIRE     MOSUNNY   73  57  57 W12G18    29.76S
6HR MIN TEMP:  66; 6HR MAX TEMP:  73;

MENOMONIE      PTCLDY    73  56  57 W9        29.77F
6HR MIN TEMP:  67; 6HR MAX TEMP:  73;

NEW RICHMOND   MOSUNNY   73  55  53 NW14G20   29.79S
6HR MIN TEMP:  63; 6HR MAX TEMP:  73;

OSCEOLA        PTSUNNY   72  58  60 W9G22     29.81S
6HR MIN TEMP:  63; 6HR MAX TEMP:  72;

$$

WIZ003>005-009-010-017-018-201900-
NORTH CENTRAL WISCONSIN

CITY           SKY/WX    TMP DP  RH WIND       PRES   REMARKS
WOODRUFF       CLOUDY    67  57  71 NW9       29.73R
6HR MIN TEMP:  65; 6HR MAX TEMP:  72;

RHINELANDER    MOSUNNY   72  57  59 W16G23    29.72S
6HR MIN TEMP:  64; 6HR MAX TEMP:  72;

EAGLE RIVER    CLOUDY    67  54  62 W12G17    29.72R
6HR MIN TEMP:  65; 6HR MAX TEMP:  71;

LAND O LAKES   CLOUDY    65  55  70 NW8       29.73R
6HR MIN TEMP:  65; 6HR MAX TEMP:  70;

PHILLIPS       CLOUDY    68  57  67 NW6       29.73F
6HR MIN TEMP:  65; 6HR MAX TEMP:  70;

TOMAHAWK       PTSUNNY   71  56  59 NW15G21   29.71F
6HR MIN TEMP:  65; 6HR MAX TEMP:  72;

MEDFORD        PTSUNNY   70  58  66 W13       29.73F
6HR MIN TEMP:  63; 6HR MAX TEMP:  71;

MERRILL        PTSUNNY   72  59  63 W13G22    29.71F
6HR MIN TEMP:  64; 6HR MAX TEMP:  72;

$$

WIZ029-030-035-036-043>047-201900-
CENTRAL WISCONSIN

CITY           SKY/WX    TMP DP  RH WIND       PRES   REMARKS
WAUSAU         CLOUDY    73  59  61 W15       29.70F
6HR MIN TEMP:  63; 6HR MAX TEMP:  74;

MOSINEE        MOSUNNY   72  61  68 W15G24    29.74S
MARSHFIELD     CLOUDY    72  60  66 W12G21    29.74S
6HR MIN TEMP:  63; 6HR MAX TEMP:  73;

STEVENS POINT  CLOUDY    69  61  77 W9        29.73R
6HR MIN TEMP:  61; 6HR MAX TEMP:  69;

WAUPACA        CLOUDY    72  65  78 SW9       29.74R
6HR MIN TEMP:  64; 6HR MAX TEMP:  73;

WAUTOMA        CLOUDY    72  65  78 W12       29.75S
6HR MIN TEMP:  61; 6HR MAX TEMP:  74;

WISC RAPIDS    CLOUDY    71  63  75 W10       29.75S
6HR MIN TEMP:  62; 6HR MAX TEMP:  71;

CAMP DOUGLAS   PTSUNNY   70  68  94 W10G21    29.76F
$$

WIZ011>013-019>022-031-037>040-048>050-201900-
NORTHEAST WISCONSIN

CITY           SKY/WX    TMP DP  RH WIND       PRES   REMARKS
ANTIGO         CLOUDY    72  60  65 W17       29.70F
6HR MIN TEMP:  62; 6HR MAX TEMP:  72;

STURGEON BAY   PTSUNNY   72  63  73 SW15G22   29.69S
6HR MIN TEMP:  63; 6HR MAX TEMP:  72;

GREEN BAY      PTSUNNY   72  64  76 SW12      29.71S
6HR MIN TEMP:  64; 6HR MAX TEMP:  73; 6HR PCP: TRACE;

MANITOWOC      PTSUNNY   73  64  73 W14G24    29.71F
6HR MIN TEMP:  65; 6HR MAX TEMP:  74;

APPLETON       CLOUDY    70  63  78 W12       29.74S
CLINTONVILLE   CLOUDY    72  61  68 W10       29.70F
OSHKOSH        PTSUNNY   73  64  73 W9        29.74R
6HR MIN TEMP:  63; 6HR MAX TEMP:  74;

$$

WIZ032>034-041-042-053>061-201900-
SOUTHWEST WISCONSIN

CITY           SKY/WX    TMP DP  RH WIND       PRES   REMARKS
LA CROSSE      CLOUDY    75  64  68 W8        29.77F
6HR MIN TEMP:  65; 6HR MAX TEMP:  75; 6HR PCP: TRACE;

SPARTA         CLOUDY    72  62  68 W8G16     29.77F
6HR MIN TEMP:  63; 6HR MAX TEMP:  73;

VIROQUA        FAIR      71  65  81 W7        29.79F
6HR MIN TEMP:  63; 6HR MAX TEMP:  71;

BOSCOBEL       CLOUDY    72  64  76 SW6       29.78F
6HR MIN TEMP:  66; 6HR MAX TEMP:  74; 6HR PCP: TRACE;

PRAIRIE DU CHI CLOUDY    70  62  76 S3        29.79S
6HR MIN TEMP:  64; 6HR MAX TEMP:  72; 6HR PCP:  0.02;

PLATTEVILLE    PTSUNNY   72  64  76 SW8       29.84F
$$

WIZ056-057-062-063-064-067-068-201900-
SOUTH CENTRAL WISCONSIN

CITY           SKY/WX    TMP DP  RH WIND       PRES   REMARKS
BARABOO/DELLS  LGT RAIN  67  62  82 SW10G17   29.80R
6HR MIN TEMP:  63; 6HR MAX TEMP:  73;

LONE ROCK      LGT RAIN  73  64  73 W5        29.79S
6HR MIN TEMP:  68; 6HR MAX TEMP:  77; 6HR PCP:  0.02;

WATERTOWN      CLOUDY    73  65  75 SW20G26   29.79S
6HR MIN TEMP:  63; 6HR MAX TEMP:  75;

MADISON        LGT RAIN  74  63  68 VRB6      29.81R
6HR MIN TEMP:  65; 6HR MAX TEMP:  76; 6HR PCP: TRACE;

MIDDLETON      MOCLDY    73  63  70 W13G18    29.81R
6HR MIN TEMP:  66; 6HR MAX TEMP:  77;

MONROE         CLOUDY    72  64  78 SW17G23   29.83F
JANESVILLE     PTSUNNY   79  61  53 SW17G23   29.81F HX  80
$$

WIZ051-052-058>065-066-070>072-201900-
SOUTHEAST WISCONSIN

CITY           SKY/WX    TMP DP  RH WIND       PRES   REMARKS
MILWAUKEE      PTSUNNY   77  61  57 SW18G30   29.78F
6HR MIN TEMP:  64; 6HR MAX TEMP:  78;

WAUKESHA       PTSUNNY   73  61  64 SW14G25   29.81R
MILWAUKEE/TIMM CLOUDY    75  61  60 SW16G23   29.79R
RACINE         PTSUNNY   77  62  59 SW15G21   29.82R
6HR MIN TEMP:  64; 6HR MAX TEMP:  77;

BURLINGTON     PTSUNNY   76  61  60 S16G28    29.79F
6HR MIN TEMP:  60; 6HR MAX TEMP:  76;

KENOSHA        PTSUNNY   76  64  66 SW13      29.82S
6HR MIN TEMP:  64; 6HR MAX TEMP:  77;

FOND DU LAC    PTSUNNY   73  63  70 SW10      29.74F
6HR MIN TEMP:  64; 6HR MAX TEMP:  74;

SHEBOYGAN      CLOUDY    73  62  68 SW20      29.75R
6HR MIN TEMP:  64; 6HR MAX TEMP:  75;

WEST BEND      PTSUNNY   73  61  64 SW18G25   29.77S
JUNEAU         PTSUNNY   74  64  71 SW16G23   29.80R
6HR MIN TEMP:  62; 6HR MAX TEMP:  74;

$$

LSZ147-162-201900-
LAKE SUPERIOR

STATION/POSITION TIME  TEMP    WIND        PRES    WAVE
                       AIR SEA DIR/SP/G            HT/PER
                 (UTC) (F)     (DEG/KT/KT) (MB)    (FT/S)
W MID LAKE BUOY  1750   53 48  260/ 12/ 14 1004.0R   2/ 4
DEVILS ISLAND    1800   56     260/ 18/ 20 1005.8R
PORT WING        1740   59     260/ 10/ 15 1007.5R
SAXON HARBOR     1700   65     310/ 12/ 16 1006.1R
$$

LMZ867-665-643>646-201900-
LAKE MICHIGAN

STATION/POSITION TIME  TEMP    WIND        PRES    WAVE
                       AIR SEA DIR/SP/G            HT/PER
                 (UTC) (F)     (DEG/KT/KT) (MB)    (FT/S)
N MID LAKE BUOY  1750   60 58  210/ 19/ 23 1003.3F   6/ 7
NORTHPORT PIER   1700   69     190/  4/ 12 1004.1S
SISTER BAY       1727          210/ 13/ 15   N/A
KEWAUNEE LAKESHO 1700   71     240/  8/ 15 1005.2R
SHEBOYGAN LAKESH 1800   72 53  230/ 15/ 18 1007.0R
PORT WASHINGTON  1700   77     240/ 10/ 19 1007.8F
ATWATER BUOY     1800   72     230/ 19/ 25 1009.7R
MILWAUKEE LAKESH 1700   74     220/ 18/ 23   N/A
S MID LAKE BUOY  1750   65 63  200/ 16/ 19 1009.3F   4/ 6
KENOSHA   LAKESH 1800   76     220/ 14/ 20 1009.5S
$$

TC  - TEMPERATURE IN CELSIUS
VSB - VISIBILITY IN STATUTE MILES
WCI - WIND CHILL INDEX
HX  - HEAT INDEX




USA.gov is the U.S. government's official web portal to all federal, state and local government web resources and services.